| time (UTC) | temp F | wind direction | speed MPH | gust MPH | rain 1hr in | rain 24hr in | rain mn in | humidity % | barometer mb |
| 20260902223110 | 61 | 215 | 6.0 | 16.0 | 0.00 | 0.14 | 0.14 | 96 | 1006.5 |
| 20260902221553 | 60 | 229 | 6.0 | 12.0 | 0.00 | 0.14 | 0.14 | 96 | 1006.6 |
| 20260902220111 | 60 | 277 | 6.0 | 15.0 | 0.00 | 0.14 | 0.14 | 96 | 1006.5 |
| 20260902214612 | 60 | 199 | 5.0 | 10.0 | 0.03 | 0.14 | 0.14 | 96 | 1006.5 |
| 20260902213116 | 59 | 194 | 6.0 | 11.0 | 0.05 | 0.14 | 0.14 | 96 | 1006.8 |
| 20260902211548 | 59 | 200 | 4.0 | 17.0 | 0.07 | 0.14 | 0.14 | 96 | 1006.8 |
| 20260902210105 | 59 | 179 | 5.0 | 13.0 | 0.07 | 0.14 | 0.14 | 96 | 1006.7 |
| 20260902204602 | 59 | 198 | 4.0 | 8.0 | 0.04 | 0.11 | 0.11 | 96 | 1007.3 |
| 20260902203109 | 59 | 176 | 4.0 | 11.0 | 0.02 | 0.09 | 0.09 | 97 | 1007.5 |
| 20260902201551 | 58 | 196 | 3.0 | 16.0 | 0.02 | 0.07 | 0.07 | 96 | 1007.3 |
| 20260902200104 | 58 | 187 | 5.0 | 14.0 | 0.02 | 0.07 | 0.07 | 96 | 1007.4 |
| 20260902194557 | 58 | 196 | 6.0 | 15.0 | 0.02 | 0.07 | 0.07 | 96 | 1007.6 |
| 20260902193111 | 58 | 157 | 4.0 | 9.0 | 0.02 | 0.07 | 0.07 | 96 | 1008.0 |
| 20260902191517 | 58 | 179 | 5.0 | 8.0 | 0.00 | 0.06 | 0.06 | 96 | 1008.1 |
| 20260902190153 | 58 | 111 | 3.0 | 7.0 | 0.00 | 0.06 | 0.06 | 96 | 1008.1 |
| 20260902184540 | 58 | 142 | 2.0 | 7.0 | 0.00 | 0.06 | 0.06 | 96 | 1008.2 |
| 20260902183105 | 58 | 155 | 3.0 | 8.0 | 0.01 | 0.06 | 0.06 | 96 | 1008.4 |
| 20260902181547 | 58 | 176 | 2.0 | 5.0 | 0.01 | 0.06 | 0.06 | 96 | 1008.8 |
| 20260902180050 | 59 | 169 | 2.0 | 5.0 | 0.01 | 0.06 | 0.06 | 96 | 1008.9 |
| 20260902174551 | 59 | 105 | 2.0 | 6.0 | 0.01 | 0.06 | 0.06 | 96 | 1009.2 |
| 20260902173107 | 58 | 36 | 1.0 | 3.0 | 0.00 | 0.06 | 0.05 | 96 | 1009.4 |
| 20260902171543 | 59 | 72 | 1.0 | 3.0 | 0.00 | 0.06 | 0.05 | 96 | 1009.7 |
| 20260902170059 | 59 | 53 | 1.0 | 6.0 | 0.01 | 0.06 | 0.05 | 96 | 1009.7 |
| 20260902164539 | 59 | 61 | 1.0 | 3.0 | 0.01 | 0.19 | 0.05 | 96 | 1009.9 |
| 20260902163016 | 58 | 82 | 0.0 | 3.0 | 0.01 | 0.19 | 0.05 | 96 | 1010.1 |
| 20260902161544 | 58 | 64 | 0.0 | 5.0 | 0.01 | 0.19 | 0.05 | 96 | 1010.2 |
| 20260902160105 | 58 | 82 | 0.0 | 3.0 | 0.00 | 0.18 | 0.04 | 96 | 1010.5 |
| 20260902154559 | 58 | 76 | 1.0 | 4.0 | 0.00 | 0.18 | 0.04 | 96 | 1010.7 |
| 20260902153112 | 57 | 64 | 0.0 | 2.0 | 0.00 | 0.18 | 0.04 | 96 | 1010.9 |
| 20260902151507 | 57 | 64 | 1.0 | 4.0 | 0.01 | 0.18 | 0.04 | 96 | 1011.0 |
| 20260902150155 | 57 | 67 | 0.0 | 3.0 | 0.01 | 0.18 | 0.04 | 96 | 1011.2 |
| 20260902144516 | 56 | 78 | 1.0 | 3.0 | 0.01 | 0.18 | 0.04 | 96 | 1011.3 |
| 20260902143118 | 56 | 30 | 0.0 | 3.0 | 0.01 | 0.18 | 0.04 | 96 | 1011.5 |
| 20260902141605 | 56 | 63 | 0.0 | 1.0 | 0.00 | 0.17 | 0.03 | 96 | 1011.6 |
| 20260902140016 | 55 | 67 | 0.0 | 4.0 | 0.00 | 0.17 | 0.03 | 96 | 1011.8 |
| 20260902134534 | 55 | 47 | 0.0 | 3.0 | 0.00 | 0.17 | 0.03 | 96 | 1011.9 |
| 20260902133051 | 55 | 38 | 0.0 | 3.0 | 0.00 | 0.17 | 0.03 | 96 | 1011.9 |
| 20260902131540 | 55 | 71 | 0.0 | 3.0 | 0.00 | 0.17 | 0.03 | 96 | 1012.1 |
| 20260902130015 | 55 | 69 | 2.0 | 4.0 | 0.00 | 0.17 | 0.03 | 96 | 1012.2 |
| 20260902124559 | 55 | 67 | 0.0 | 5.0 | 0.00 | 0.17 | 0.03 | 96 | 1012.2 |
| 20260902123111 | 55 | 66 | 1.0 | 6.0 | 0.00 | 0.17 | 0.03 | 96 | 1012.4 |
| 20260902121544 | 54 | 71 | 2.0 | 4.0 | 0.00 | 0.17 | 0.03 | 96 | 1012.5 |
| 20260902120043 | 54 | 73 | 2.0 | 5.0 | 0.00 | 0.17 | 0.03 | 96 | 1012.7 |
| 20260902114542 | 54 | 355 | 2.0 | 4.0 | 0.00 | 0.17 | 0.03 | 96 | 1012.9 |
| 20260902113039 | 55 | 22 | 1.0 | 7.0 | 0.00 | 0.17 | 0.03 | 96 | 1013.1 |
| 20260902111542 | 54 | 23 | 2.0 | 5.0 | 0.00 | 0.17 | 0.03 | 96 | 1013.2 |
| 20260902110111 | 55 | 13 | 1.0 | 5.0 | 0.01 | 0.17 | 0.03 | 96 | 1013.2 |
| 20260902104551 | 55 | 63 | 0.0 | 4.0 | 0.02 | 0.17 | 0.03 | 96 | 1013.2 |
| 20260902103112 | 55 | 74 | 1.0 | 6.0 | 0.02 | 0.17 | 0.03 | 96 | 1013.3 |
| 20260902101556 | 55 | 145 | 2.0 | 5.0 | 0.02 | 0.17 | 0.03 | 96 | 1013.2 |
| 20260902100115 | 54 | 71 | 4.0 | 9.0 | 0.02 | 0.17 | 0.02 | 95 | 1013.3 |
| 20260902094542 | 55 | 69 | 4.0 | 9.0 | 0.01 | 0.16 | 0.02 | 96 | 1013.5 |
| 20260902093002 | 55 | 130 | 1.0 | 4.0 | 0.00 | 0.15 | 0.01 | 96 | 1013.6 |
| 20260902091649 | 55 | 81 | 2.0 | 8.0 | 0.00 | 0.15 | 0.01 | 96 | 1013.4 |
| 20260901231605 | 55 | 295 | 3.0 | 8.0 | 0.00 | 0.14 | 0.00 | 93 | 1013.8 |
| 20260901230104 | 55 | 258 | 3.0 | 8.0 | 0.00 | 0.14 | 0.00 | 93 | 1013.9 |